Wetterdaten: Donnerstag, 14.04.2016
Datum Zeit Auen-Temp. Temp gefhlt Luftfeuchte Luftdruck Regen Wind Richtung Richtung Sonnenschein Taupunkt Windben
14.04.2016 00:00 5,8 C 5,8 C 91 % 1009,4 hPa 0,0 mm 2,7 km/h (1 Bft) W-SW 247 0 min 4,4 C 3,0 km/h (1 Bft)
14.04.2016 00:05 5,8 C 5,7 C 91 % 1009,4 hPa 0,0 mm 1,8 km/h (1 Bft) SO 135 0 min 4,4 C 3,0 km/h (1 Bft)
14.04.2016 00:10 5,9 C 5,8 C 91 % 1009,4 hPa 0,0 mm 0,6 km/h (0 Bft) S-SO 157 0 min 4,5 C 3,0 km/h (1 Bft)
14.04.2016 00:15 6,0 C 5,9 C 90 % 1009,4 hPa 0,0 mm 3,0 km/h (1 Bft) S 180 0 min 4,5 C 12,2 km/h (2 Bft)
14.04.2016 00:20 6,1 C 6,0 C 90 % 1009,4 hPa 0,0 mm 5,4 km/h (1 Bft) SW 225 0 min 4,6 C 13,1 km/h (3 Bft)
14.04.2016 00:25 6,4 C 6,1 C 90 % 1009,4 hPa 0,0 mm 8,3 km/h (2 Bft) SW 225 0 min 4,9 C 15,2 km/h (3 Bft)
14.04.2016 00:30 6,4 C 6,1 C 90 % 1009,4 hPa 0,0 mm 8,0 km/h (2 Bft) SW 225 0 min 4,9 C 3,3 km/h (1 Bft)
14.04.2016 00:35 6,3 C 6,2 C 89 % 1009,4 hPa 0,0 mm 5,4 km/h (1 Bft) S-SW 202 0 min 4,6 C 4,2 km/h (1 Bft)
14.04.2016 00:37 6,3 C 6,2 C 89 % 1009,4 hPa 0,0 mm 5,4 km/h (1 Bft) S-SW 202 0 min 4,6 C 4,2 km/h (1 Bft)
14.04.2016 00:40 6,3 C 6,2 C 89 % 1009,4 hPa 0,0 mm 5,4 km/h (1 Bft) W-SW 247 0 min 4,6 C 8,9 km/h (2 Bft)
14.04.2016 00:45 6,4 C 6,2 C 89 % 1009,4 hPa 0,0 mm 5,4 km/h (1 Bft) SW 225 0 min 4,7 C 3,9 km/h (1 Bft)
14.04.2016 00:50 6,4 C 6,2 C 89 % 1009,4 hPa 0,7 mm 5,4 km/h (1 Bft) S 180 0 min 4,7 C 5,1 km/h (1 Bft)
14.04.2016 00:55 6,4 C 6,2 C 89 % 1009,4 hPa 0,0 mm 5,7 km/h (1 Bft) S 180 0 min 4,7 C 6,3 km/h (2 Bft)
14.04.2016 01:00 6,3 C 6,1 C 89 % 1009,4 hPa 0,0 mm 5,4 km/h (1 Bft) W-SW 247 0 min 4,6 C 5,4 km/h (1 Bft)
14.04.2016 01:05 6,3 C 6,1 C 88 % 1009,4 hPa 0,0 mm 4,5 km/h (1 Bft) W-SW 247 0 min 4,5 C 9,5 km/h (2 Bft)
14.04.2016 01:10 6,3 C 6,1 C 88 % 1009,6 hPa 0,0 mm 4,8 km/h (1 Bft) SW 225 0 min 4,5 C 6,6 km/h (2 Bft)
14.04.2016 01:15 6,3 C 6,1 C 88 % 1009,6 hPa 0,0 mm 6,3 km/h (2 Bft) W-SW 247 0 min 4,5 C 8,3 km/h (2 Bft)
14.04.2016 01:20 6,4 C 6,2 C 88 % 1009,6 hPa 0,0 mm 6,6 km/h (2 Bft) W-SW 247 0 min 4,6 C 14,0 km/h (3 Bft)
14.04.2016 01:25 6,4 C 6,1 C 88 % 1009,6 hPa 0,0 mm 7,5 km/h (2 Bft) W-SW 247 0 min 4,6 C 15,5 km/h (3 Bft)
14.04.2016 01:30 6,4 C 6,1 C 88 % 1009,6 hPa 0,0 mm 8,0 km/h (2 Bft) NW 315 0 min 4,6 C 14,0 km/h (3 Bft)
14.04.2016 01:35 6,5 C 6,1 C 87 % 1009,6 hPa 0,0 mm 9,2 km/h (2 Bft) W-SW 247 0 min 4,5 C 9,8 km/h (2 Bft)
14.04.2016 01:40 6,5 C 6,2 C 87 % 1009,6 hPa 0,0 mm 9,2 km/h (2 Bft) W-SW 247 0 min 4,5 C 11,6 km/h (2 Bft)
14.04.2016 01:45 6,5 C 6,2 C 87 % 1009,6 hPa 0,0 mm 8,3 km/h (2 Bft) W-SW 247 0 min 4,5 C 17,3 km/h (3 Bft)
14.04.2016 01:50 6,4 C 6,2 C 86 % 1009,7 hPa 0,0 mm 7,7 km/h (2 Bft) W-SW 247 0 min 4,2 C 4,5 km/h (1 Bft)
14.04.2016 01:55 6,4 C 6,2 C 86 % 1009,7 hPa 0,0 mm 7,2 km/h (2 Bft) W-SW 247 0 min 4,2 C 6,6 km/h (2 Bft)
14.04.2016 02:00 6,3 C 6,1 C 86 % 1009,7 hPa 0,0 mm 7,5 km/h (2 Bft) W-SW 247 0 min 4,1 C 11,6 km/h (2 Bft)
14.04.2016 02:05 6,3 C 6,1 C 85 % 1009,7 hPa 0,0 mm 7,7 km/h (2 Bft) W-SW 247 0 min 4,0 C 14,6 km/h (3 Bft)
14.04.2016 02:10 6,3 C 6,1 C 85 % 1009,8 hPa 0,0 mm 7,7 km/h (2 Bft) W-SW 247 0 min 4,0 C 7,2 km/h (2 Bft)
14.04.2016 02:15 6,3 C 6,1 C 85 % 1009,8 hPa 0,0 mm 7,5 km/h (2 Bft) W-SW 247 0 min 4,0 C 8,3 km/h (2 Bft)
14.04.2016 02:20 6,3 C 6,2 C 85 % 1009,8 hPa 0,0 mm 6,9 km/h (2 Bft) W-SW 247 0 min 4,0 C 5,7 km/h (1 Bft)
14.04.2016 02:25 6,3 C 6,1 C 85 % 1009,8 hPa 0,0 mm 7,2 km/h (2 Bft) S 180 0 min 4,0 C 10,7 km/h (2 Bft)
14.04.2016 02:30 6,3 C 6,1 C 85 % 1009,9 hPa 0,0 mm 7,5 km/h (2 Bft) SW 225 0 min 4,0 C 11,0 km/h (2 Bft)
14.04.2016 02:35 6,4 C 6,1 C 84 % 1009,9 hPa 0,0 mm 9,5 km/h (2 Bft) W 270 0 min 3,9 C 19,4 km/h (3 Bft)
14.04.2016 02:40 6,4 C 6,1 C 84 % 1009,9 hPa 0,0 mm 9,5 km/h (2 Bft) W-NW 292 0 min 3,9 C 5,4 km/h (1 Bft)
14.04.2016 02:45 6,3 C 6,1 C 84 % 1009,9 hPa 0,0 mm 7,7 km/h (2 Bft) W-SW 247 0 min 3,8 C 6,9 km/h (2 Bft)
14.04.2016 02:50 6,3 C 6,2 C 84 % 1009,9 hPa 0,0 mm 7,2 km/h (2 Bft) W-NW 292 0 min 3,8 C 14,3 km/h (3 Bft)
14.04.2016 02:55 6,3 C 6,1 C 84 % 1009,9 hPa 0,0 mm 7,5 km/h (2 Bft) W-SW 247 0 min 3,8 C 14,9 km/h (3 Bft)
14.04.2016 03:00 6,3 C 6,2 C 84 % 1009,9 hPa 0,0 mm 7,2 km/h (2 Bft) W-NW 292 0 min 3,8 C 4,2 km/h (1 Bft)
14.04.2016 03:05 6,2 C 6,1 C 84 % 1009,9 hPa 0,0 mm 6,6 km/h (2 Bft) W 270 0 min 3,7 C 12,8 km/h (3 Bft)
14.04.2016 03:10 6,3 C 6,1 C 84 % 1009,9 hPa 0,0 mm 7,2 km/h (2 Bft) W-SW 247 0 min 3,8 C 9,5 km/h (2 Bft)
14.04.2016 03:15 6,3 C 6,1 C 83 % 1009,9 hPa 0,0 mm 7,7 km/h (2 Bft) W 270 0 min 3,6 C 10,7 km/h (2 Bft)
14.04.2016 03:20 6,3 C 6,1 C 83 % 1009,9 hPa 0,0 mm 7,5 km/h (2 Bft) W-NW 292 0 min 3,6 C 5,4 km/h (1 Bft)
14.04.2016 03:25 6,3 C 6,2 C 83 % 1009,9 hPa 0,0 mm 6,9 km/h (2 Bft) W-SW 247 0 min 3,6 C 8,6 km/h (2 Bft)
14.04.2016 03:30 6,3 C 6,2 C 83 % 1009,9 hPa 0,0 mm 6,9 km/h (2 Bft) W-SW 247 0 min 3,6 C 5,7 km/h (1 Bft)
14.04.2016 03:35 6,2 C 6,1 C 83 % 1009,9 hPa 0,0 mm 7,5 km/h (2 Bft) W-SW 247 0 min 3,5 C 5,7 km/h (1 Bft)
14.04.2016 03:38 6,2 C 6,1 C 83 % 1009,9 hPa 0,0 mm 7,5 km/h (2 Bft) W-SW 247 0 min 3,5 C 5,7 km/h (1 Bft)
14.04.2016 03:40 6,2 C 6,0 C 83 % 1009,9 hPa 0,0 mm 7,5 km/h (2 Bft) W-SW 247 0 min 3,5 C 13,7 km/h (3 Bft)
14.04.2016 03:45 6,2 C 6,0 C 84 % 1009,9 hPa 0,0 mm 7,7 km/h (2 Bft) W-NW 292 0 min 3,7 C 11,3 km/h (2 Bft)
14.04.2016 03:50 6,2 C 6,0 C 84 % 1010,1 hPa 0,0 mm 7,5 km/h (2 Bft) W 270 0 min 3,7 C 12,5 km/h (3 Bft)
14.04.2016 03:55 6,2 C 6,1 C 84 % 1010,1 hPa 0,0 mm 6,3 km/h (2 Bft) W-SW 247 0 min 3,7 C 5,4 km/h (1 Bft)
14.04.2016 04:00 6,2 C 6,1 C 84 % 1010,1 hPa 0,0 mm 6,3 km/h (2 Bft) W 270 0 min 3,7 C 11,9 km/h (2 Bft)
14.04.2016 04:05 6,2 C 6,0 C 84 % 1010,1 hPa 0,0 mm 7,5 km/h (2 Bft) W 270 0 min 3,7 C 13,4 km/h (3 Bft)
14.04.2016 04:10 6,1 C 5,7 C 84 % 1010,1 hPa 0,0 mm 8,9 km/h (2 Bft) W-SW 247 0 min 3,6 C 7,5 km/h (2 Bft)
14.04.2016 04:15 6,1 C 5,7 C 84 % 1010,1 hPa 0,0 mm 8,6 km/h (2 Bft) W-SW 247 0 min 3,6 C 10,1 km/h (2 Bft)
14.04.2016 04:20 6,0 C 5,7 C 84 % 1010,1 hPa 0,0 mm 8,0 km/h (2 Bft) W-SW 247 0 min 3,5 C 6,6 km/h (2 Bft)
14.04.2016 04:25 6,0 C 5,6 C 85 % 1010,1 hPa 0,0 mm 7,7 km/h (2 Bft) W 270 0 min 3,7 C 19,7 km/h (3 Bft)
14.04.2016 04:30 6,0 C 5,6 C 85 % 1010,2 hPa 0,0 mm 8,3 km/h (2 Bft) S 180 0 min 3,7 C 14,6 km/h (3 Bft)
14.04.2016 04:35 5,9 C 5,4 C 86 % 1010,2 hPa 0,0 mm 9,8 km/h (2 Bft) W-SW 247 0 min 3,7 C 27,1 km/h (4 Bft)
14.04.2016 04:40 5,9 C 5,4 C 86 % 1010,2 hPa 0,0 mm 9,5 km/h (2 Bft) W 270 0 min 3,7 C 3,6 km/h (1 Bft)
14.04.2016 04:45 5,8 C 5,4 C 86 % 1010,2 hPa 0,0 mm 7,5 km/h (2 Bft) W-NW 292 0 min 3,6 C 6,0 km/h (2 Bft)
14.04.2016 04:50 5,8 C 5,4 C 86 % 1010,4 hPa 0,0 mm 7,5 km/h (2 Bft) N-NW 337 0 min 3,6 C 6,6 km/h (2 Bft)
14.04.2016 04:55 5,7 C 5,2 C 87 % 1010,4 hPa 0,0 mm 9,2 km/h (2 Bft) W-NW 292 0 min 3,7 C 15,5 km/h (3 Bft)
14.04.2016 05:00 5,6 C 5,1 C 87 % 1010,4 hPa 0,0 mm 9,8 km/h (2 Bft) W-SW 247 0 min 3,6 C 8,6 km/h (2 Bft)
14.04.2016 05:05 5,8 C 5,1 C 83 % 1010,4 hPa 0,7 mm 9,8 km/h (2 Bft) W-SW 247 0 min 3,1 C 21,8 km/h (4 Bft)
14.04.2016 05:10 5,7 C 5,1 C 83 % 1010,5 hPa 0,0 mm 8,6 km/h (2 Bft) W 270 0 min 3,0 C 9,2 km/h (2 Bft)
14.04.2016 05:15 5,7 C 5,1 C 83 % 1010,5 hPa 0,0 mm 8,6 km/h (2 Bft) W-SW 247 0 min 3,0 C 9,2 km/h (2 Bft)
14.04.2016 05:20 5,6 C 5,0 C 83 % 1010,5 hPa 0,0 mm 8,0 km/h (2 Bft) W 270 0 min 2,9 C 14,9 km/h (3 Bft)
14.04.2016 05:25 5,6 C 4,8 C 83 % 1010,5 hPa 0,0 mm 9,2 km/h (2 Bft) W-SW 247 0 min 2,9 C 31,0 km/h (5 Bft)
14.04.2016 05:30 5,6 C 4,6 C 83 % 1010,4 hPa 0,0 mm 11,6 km/h (2 Bft) W-SW 247 0 min 2,9 C 21,2 km/h (4 Bft)
14.04.2016 05:35 5,4 C 4,6 C 83 % 1010,4 hPa 0,0 mm 10,7 km/h (2 Bft) W 270 0 min 2,7 C 9,2 km/h (2 Bft)
14.04.2016 05:40 5,4 C 4,6 C 83 % 1010,4 hPa 0,0 mm 8,9 km/h (2 Bft) W-SW 247 0 min 2,7 C 9,8 km/h (2 Bft)
14.04.2016 05:45 5,2 C 4,6 C 83 % 1010,4 hPa 0,0 mm 8,0 km/h (2 Bft) W 270 0 min 2,6 C 8,6 km/h (2 Bft)
14.04.2016 05:50 5,1 C 4,6 C 83 % 1010,6 hPa 0,0 mm 8,3 km/h (2 Bft) S 180 0 min 2,5 C 6,6 km/h (2 Bft)
14.04.2016 05:55 5,0 C 4,4 C 84 % 1010,6 hPa 0,0 mm 9,2 km/h (2 Bft) SW 225 0 min 2,5 C 11,3 km/h (2 Bft)
14.04.2016 06:00 5,0 C 4,3 C 84 % 1010,6 hPa 0,0 mm 9,5 km/h (2 Bft) W-SW 247 0 min 2,5 C 8,3 km/h (2 Bft)
14.04.2016 06:05 5,0 C 4,3 C 84 % 1010,6 hPa 0,0 mm 9,2 km/h (2 Bft) S 180 0 min 2,5 C 9,8 km/h (2 Bft)
14.04.2016 06:10 5,0 C 4,3 C 84 % 1010,8 hPa 3,4 mm 8,3 km/h (2 Bft) W 270 0 min 2,5 C 40,2 km/h (6 Bft)
14.04.2016 06:15 5,0 C 4,0 C 84 % 1010,8 hPa 0,0 mm 10,4 km/h (2 Bft) S 180 0 min 2,5 C 8,3 km/h (2 Bft)
14.04.2016 06:20 5,0 C 3,9 C 84 % 1010,8 hPa 0,0 mm 10,7 km/h (2 Bft) S-SW 202 0 min 2,5 C 14,0 km/h (3 Bft)
14.04.2016 06:25 5,0 C 4,1 C 84 % 1010,8 hPa 0,0 mm 8,3 km/h (2 Bft) SW 225 0 min 2,5 C 12,2 km/h (2 Bft)
14.04.2016 06:30 5,0 C 4,1 C 84 % 1010,9 hPa 0,0 mm 8,0 km/h (2 Bft) W 270 0 min 2,5 C 0,0 km/h (0 Bft)
14.04.2016 06:35 5,0 C 4,4 C 84 % 1010,9 hPa 0,0 mm 5,1 km/h (1 Bft) S 180 0 min 2,5 C 8,0 km/h (2 Bft)
14.04.2016 06:38 5,0 C 4,4 C 84 % 1010,9 hPa 0,0 mm 4,8 km/h (1 Bft) S 180 0 min 2,5 C 11,6 km/h (2 Bft)
14.04.2016 06:39 5,0 C 4,4 C 84 % 1010,9 hPa 1,4 mm 4,8 km/h (1 Bft) S 180 0 min 2,5 C 11,6 km/h (2 Bft)
14.04.2016 06:40 5,0 C 4,4 C 84 % 1010,9 hPa 0,0 mm 4,8 km/h (1 Bft) S 180 0 min 2,5 C 11,6 km/h (2 Bft)
14.04.2016 06:45 5,0 C 4,2 C 84 % 1010,9 hPa 0,0 mm 8,0 km/h (2 Bft) W-SW 247 0 min 2,5 C 7,2 km/h (2 Bft)
14.04.2016 06:50 5,0 C 4,3 C 84 % 1011,2 hPa 0,0 mm 7,7 km/h (2 Bft) S 180 0 min 2,5 C 8,6 km/h (2 Bft)
14.04.2016 06:55 5,0 C 4,0 C 84 % 1011,2 hPa 0,0 mm 11,6 km/h (2 Bft) W-NW 292 0 min 2,5 C 19,7 km/h (3 Bft)
14.04.2016 07:00 5,0 C 3,8 C 84 % 1011,2 hPa 1,4 mm 13,1 km/h (3 Bft) W-SW 247 0 min 2,5 C 16,1 km/h (3 Bft)
14.04.2016 07:05 5,0 C 3,9 C 84 % 1011,2 hPa 0,0 mm 10,1 km/h (2 Bft) W-SW 247 0 min 2,5 C 7,2 km/h (2 Bft)
14.04.2016 07:10 5,0 C 4,2 C 84 % 1011,4 hPa 0,0 mm 7,7 km/h (2 Bft) W-SW 247 0 min 2,5 C 6,6 km/h (2 Bft)
14.04.2016 07:15 5,0 C 4,4 C 84 % 1011,4 hPa 1,4 mm 5,4 km/h (1 Bft) W-SW 247 0 min 2,5 C 5,1 km/h (1 Bft)
14.04.2016 07:20 5,0 C 4,4 C 84 % 1011,4 hPa 0,0 mm 6,0 km/h (2 Bft) N-NW 337 0 min 2,5 C 11,3 km/h (2 Bft)
14.04.2016 07:25 5,0 C 4,0 C 84 % 1011,4 hPa 0,0 mm 9,5 km/h (2 Bft) W 270 0 min 2,5 C 13,4 km/h (3 Bft)
14.04.2016 07:30 5,0 C 3,9 C 84 % 1011,8 hPa 0,0 mm 9,8 km/h (2 Bft) S 180 0 min 2,5 C 12,2 km/h (2 Bft)
14.04.2016 07:35 5,0 C 3,8 C 84 % 1011,8 hPa 0,0 mm 8,9 km/h (2 Bft) SW 225 0 min 2,5 C 6,9 km/h (2 Bft)
14.04.2016 07:40 5,0 C 3,5 C 84 % 1011,8 hPa 0,0 mm 11,6 km/h (2 Bft) SW 225 0 min 2,5 C 22,4 km/h (4 Bft)
14.04.2016 07:45 5,0 C 3,5 C 84 % 1011,8 hPa 0,0 mm 14,6 km/h (3 Bft) SW 225 0 min 2,5 C 17,3 km/h (3 Bft)
14.04.2016 07:50 4,2 C 3,4 C 85 % 1011,8 hPa 0,0 mm 15,5 km/h (3 Bft) W-SW 247 0 min 1,9 C 13,1 km/h (3 Bft)
14.04.2016 07:55 4,1 C 3,1 C 85 % 1011,8 hPa 0,0 mm 14,0 km/h (3 Bft) S 180 0 min 1,8 C 20,0 km/h (4 Bft)
14.04.2016 08:00 4,1 C 3,2 C 85 % 1011,8 hPa 0,0 mm 13,1 km/h (3 Bft) W-SW 247 0 min 1,8 C 6,6 km/h (2 Bft)
14.04.2016 08:05 4,1 C 3,4 C 89 % 1011,8 hPa 0,0 mm 11,6 km/h (2 Bft) SW 225 0 min 2,5 C 17,3 km/h (3 Bft)
14.04.2016 08:10 4,1 C 3,5 C 89 % 1012,1 hPa 0,0 mm 10,4 km/h (2 Bft) W 270 0 min 2,5 C 10,7 km/h (2 Bft)
14.04.2016 08:15 4,1 C 3,4 C 85 % 1012,1 hPa 2,1 mm 11,3 km/h (2 Bft) S-SW 202 0 min 1,8 C 14,6 km/h (3 Bft)
14.04.2016 08:20 4,1 C 3,6 C 85 % 1012,1 hPa 0,0 mm 8,0 km/h (2 Bft) W-SW 247 0 min 1,8 C 3,3 km/h (1 Bft)
14.04.2016 08:25 4,1 C 3,6 C 85 % 1012,1 hPa 0,0 mm 7,5 km/h (2 Bft) W 270 0 min 1,8 C 10,1 km/h (2 Bft)
14.04.2016 08:30 4,1 C 3,6 C 89 % 1012,3 hPa 0,0 mm 8,6 km/h (2 Bft) W 270 0 min 2,5 C 10,7 km/h (2 Bft)
14.04.2016 08:35 4,2 C 3,6 C 89 % 1012,3 hPa 0,0 mm 9,2 km/h (2 Bft) NO 45 0 min 2,6 C 11,9 km/h (2 Bft)
14.04.2016 08:40 4,3 C 3,8 C 89 % 1012,3 hPa 0,0 mm 8,9 km/h (2 Bft) W-SW 247 0 min 2,7 C 12,5 km/h (3 Bft)
14.04.2016 08:45 4,6 C 4,1 C 89 % 1012,3 hPa 0,0 mm 9,2 km/h (2 Bft) W 270 0 min 2,9 C 8,6 km/h (2 Bft)
14.04.2016 08:50 4,7 C 4,2 C 89 % 1012,4 hPa 0,0 mm 8,6 km/h (2 Bft) SW 225 0 min 3,0 C 10,1 km/h (2 Bft)
14.04.2016 08:55 5,0 C 4,7 C 89 % 1012,4 hPa 0,0 mm 7,5 km/h (2 Bft) W-NW 292 0 min 3,3 C 9,2 km/h (2 Bft)
14.04.2016 09:00 5,0 C 4,7 C 89 % 1012,4 hPa 0,0 mm 7,7 km/h (2 Bft) SW 225 0 min 3,3 C 8,9 km/h (2 Bft)
14.04.2016 09:05 5,5 C 5,3 C 89 % 1012,4 hPa 0,0 mm 6,6 km/h (2 Bft) S-SW 202 0 min 3,8 C 17,0 km/h (3 Bft)
14.04.2016 09:10 6,0 C 5,8 C 88 % 1012,7 hPa 0,0 mm 7,2 km/h (2 Bft) SW 225 0 min 4,2 C 16,4 km/h (3 Bft)
14.04.2016 09:15 6,5 C 6,4 C 87 % 1012,7 hPa 0,0 mm 8,3 km/h (2 Bft) S 180 0 min 4,5 C 14,6 km/h (3 Bft)
14.04.2016 09:20 6,9 C 7,2 C 87 % 1012,7 hPa 0,0 mm 7,7 km/h (2 Bft) W-SW 247 0 min 4,9 C 14,6 km/h (3 Bft)
14.04.2016 09:25 6,8 C 7,2 C 86 % 1012,7 hPa 0,0 mm 8,0 km/h (2 Bft) W 270 0 min 4,6 C 7,5 km/h (2 Bft)
14.04.2016 09:30 6,9 C 7,3 C 86 % 1013,1 hPa 0,0 mm 7,7 km/h (2 Bft) W-SW 247 0 min 4,7 C 9,2 km/h (2 Bft)
14.04.2016 09:35 7,4 C 7,8 C 84 % 1013,1 hPa 0,0 mm 8,3 km/h (2 Bft) W-SW 247 0 min 4,9 C 16,1 km/h (3 Bft)
14.04.2016 09:38 7,3 C 7,8 C 83 % 1013,1 hPa 0,0 mm 8,9 km/h (2 Bft) W 270 0 min 4,6 C 8,6 km/h (2 Bft)
14.04.2016 09:39 7,3 C 7,8 C 83 % 1013,1 hPa 0,0 mm 8,9 km/h (2 Bft) W 270 0 min 4,6 C 8,6 km/h (2 Bft)
14.04.2016 09:45 7,8 C 8,3 C 83 % 1013,1 hPa 0,0 mm 8,6 km/h (2 Bft) W-SW 247 0 min 5,1 C 10,1 km/h (2 Bft)
14.04.2016 09:50 7,9 C 9,0 C 82 % 1013,4 hPa 0,0 mm 8,9 km/h (2 Bft) W-NW 292 0 min 5,0 C 8,0 km/h (2 Bft)
14.04.2016 09:55 7,5 C 8,3 C 82 % 1013,4 hPa 0,0 mm 10,1 km/h (2 Bft) W-NW 292 0 min 4,6 C 19,4 km/h (3 Bft)
14.04.2016 10:00 7,4 C 8,0 C 81 % 1013,4 hPa 0,0 mm 9,5 km/h (2 Bft) S-SW 202 0 min 4,4 C 7,5 km/h (2 Bft)
14.04.2016 10:05 8,2 C 9,0 C 81 % 1013,4 hPa 0,0 mm 8,3 km/h (2 Bft) W-SW 247 0 min 5,1 C 10,4 km/h (2 Bft)
14.04.2016 10:10 8,0 C 9,3 C 81 % 1013,7 hPa 0,0 mm 8,6 km/h (2 Bft) S 180 0 min 4,9 C 20,9 km/h (4 Bft)
14.04.2016 10:15 7,7 C 8,1 C 80 % 1013,7 hPa 0,0 mm 10,7 km/h (2 Bft) W-SW 247 0 min 4,5 C 13,4 km/h (3 Bft)
14.04.2016 10:20 7,5 C 7,7 C 80 % 1013,7 hPa 0,0 mm 10,4 km/h (2 Bft) SW 225 0 min 4,3 C 8,6 km/h (2 Bft)
14.04.2016 10:25 7,6 C 7,7 C 80 % 1013,7 hPa 0,0 mm 9,8 km/h (2 Bft) W-SW 247 0 min 4,4 C 8,6 km/h (2 Bft)
14.04.2016 10:30 7,8 C 8,0 C 80 % 1014,0 hPa 0,0 mm 8,6 km/h (2 Bft) W 270 0 min 4,6 C 11,9 km/h (2 Bft)
14.04.2016 10:35 7,3 C 7,8 C 80 % 1014,0 hPa 0,0 mm 7,5 km/h (2 Bft) S-SW 202 0 min 4,1 C 19,7 km/h (3 Bft)
14.04.2016 10:40 7,0 C 6,9 C 80 % 1014,0 hPa 0,0 mm 9,5 km/h (2 Bft) SW 225 0 min 3,8 C 10,1 km/h (2 Bft)
14.04.2016 10:45 7,4 C 7,1 C 80 % 1014,0 hPa 0,0 mm 9,5 km/h (2 Bft) W 270 0 min 4,2 C 7,7 km/h (2 Bft)
14.04.2016 10:50 7,6 C 7,4 C 80 % 1014,0 hPa 0,0 mm 8,0 km/h (2 Bft) W 270 0 min 4,4 C 5,7 km/h (1 Bft)
14.04.2016 10:55 7,9 C 7,8 C 80 % 1014,0 hPa 0,0 mm 8,6 km/h (2 Bft) W 270 0 min 4,7 C 11,6 km/h (2 Bft)
14.04.2016 11:00 8,2 C 8,2 C 80 % 1014,0 hPa 0,0 mm 8,9 km/h (2 Bft) W 270 0 min 5,0 C 10,1 km/h (2 Bft)
14.04.2016 11:05 9,0 C 9,4 C 80 % 1014,0 hPa 0,0 mm 8,6 km/h (2 Bft) W-SW 247 0 min 5,7 C 5,7 km/h (1 Bft)
14.04.2016 11:10 8,7 C 9,7 C 80 % 1014,1 hPa 0,0 mm 10,1 km/h (2 Bft) W 270 0 min 5,4 C 9,2 km/h (2 Bft)
14.04.2016 11:15 8,7 C 9,4 C 79 % 1014,1 hPa 0,0 mm 11,3 km/h (2 Bft) W-NW 292 0 min 5,3 C 11,9 km/h (2 Bft)
14.04.2016 11:20 8,7 C 9,3 C 79 % 1014,1 hPa 0,0 mm 10,4 km/h (2 Bft) W-NW 292 0 min 5,3 C 17,0 km/h (3 Bft)
14.04.2016 11:25 8,4 C 9,0 C 79 % 1014,1 hPa 0,7 mm 11,0 km/h (2 Bft) W-SW 247 0 min 5,0 C 6,6 km/h (2 Bft)
14.04.2016 11:30 8,6 C 9,3 C 79 % 1014,2 hPa 0,0 mm 10,1 km/h (2 Bft) W-NW 292 0 min 5,2 C 8,6 km/h (2 Bft)
14.04.2016 11:35 8,1 C 8,9 C 79 % 1014,2 hPa 0,0 mm 9,5 km/h (2 Bft) W-SW 247 0 min 4,7 C 18,8 km/h (3 Bft)
14.04.2016 11:40 8,1 C 8,4 C 79 % 1014,2 hPa 0,0 mm 10,7 km/h (2 Bft) NW 315 0 min 4,7 C 9,5 km/h (2 Bft)
14.04.2016 11:45 8,5 C 8,5 C 79 % 1014,2 hPa 0,0 mm 10,4 km/h (2 Bft) NW 315 0 min 5,1 C 17,6 km/h (3 Bft)
14.04.2016 11:50 8,8 C 9,2 C 79 % 1014,2 hPa 0,0 mm 10,1 km/h (2 Bft) W-SW 247 0 min 5,4 C 8,9 km/h (2 Bft)
14.04.2016 11:55 8,9 C 10,2 C 78 % 1014,2 hPa 0,0 mm 8,0 km/h (2 Bft) W 270 0 min 5,3 C 5,7 km/h (1 Bft)
14.04.2016 12:00 9,1 C 10,3 C 78 % 1014,2 hPa 0,0 mm 6,9 km/h (2 Bft) W-SW 247 0 min 5,5 C 8,9 km/h (2 Bft)
14.04.2016 12:05 10,7 C 11,4 C 78 % 1014,2 hPa 0,0 mm 6,3 km/h (2 Bft) W 270 0 min 7,0 C 6,3 km/h (2 Bft)
14.04.2016 12:10 10,9 C 13,4 C 78 % 1014,2 hPa 0,0 mm 7,5 km/h (2 Bft) W 270 5 min 7,2 C 11,3 km/h (2 Bft)
14.04.2016 12:15 11,5 C 14,9 C 77 % 1014,2 hPa 0,0 mm 7,5 km/h (2 Bft) O-SO 112 5 min 7,6 C 5,4 km/h (1 Bft)
14.04.2016 12:20 10,6 C 14,9 C 76 % 1014,2 hPa 0,0 mm 6,9 km/h (2 Bft) S-SW 202 5 min 6,5 C 4,2 km/h (1 Bft)
14.04.2016 12:25 9,4 C 12,5 C 76 % 1014,2 hPa 0,0 mm 8,3 km/h (2 Bft) W-SW 247 5 min 5,4 C 16,1 km/h (3 Bft)
14.04.2016 12:30 9,4 C 11,4 C 76 % 1014,6 hPa 0,0 mm 8,0 km/h (2 Bft) W 270 5 min 5,4 C 11,9 km/h (2 Bft)
14.04.2016 12:35 11,6 C 11,7 C 76 % 1014,6 hPa 0,0 mm 5,4 km/h (1 Bft) W-NW 292 0 min 7,5 C 6,6 km/h (2 Bft)
14.04.2016 12:38 10,8 C 13,8 C 76 % 1014,6 hPa 0,0 mm 7,2 km/h (2 Bft) SW 225 3 min 6,7 C 19,4 km/h (3 Bft)
14.04.2016 12:40 10,8 C 13,8 C 76 % 1014,6 hPa 0,0 mm 7,2 km/h (2 Bft) SW 225 2 min 6,7 C 19,4 km/h (3 Bft)
14.04.2016 12:45 9,7 C 12,3 C 76 % 1014,6 hPa 0,0 mm 8,9 km/h (2 Bft) S 180 5 min 5,7 C 8,6 km/h (2 Bft)
14.04.2016 12:50 9,4 C 11,2 C 76 % 1014,6 hPa 0,0 mm 8,9 km/h (2 Bft) SW 225 0 min 5,4 C 7,5 km/h (2 Bft)
14.04.2016 12:55 9,4 C 10,1 C 76 % 1014,6 hPa 0,0 mm 7,2 km/h (2 Bft) W 270 0 min 5,4 C 11,3 km/h (2 Bft)
14.04.2016 13:00 9,4 C 8,9 C 76 % 1014,6 hPa 0,0 mm 7,2 km/h (2 Bft) W-SW 247 0 min 5,4 C 6,9 km/h (2 Bft)
14.04.2016 13:05 9,4 C 8,6 C 76 % 1014,6 hPa 0,0 mm 7,2 km/h (2 Bft) W-SW 247 0 min 5,4 C 0,0 km/h (0 Bft)
14.04.2016 13:10 9,4 C 8,2 C 76 % 1014,7 hPa 0,0 mm 7,5 km/h (2 Bft) W 270 0 min 5,4 C 39,9 km/h (6 Bft)
14.04.2016 13:15 9,4 C 7,1 C 76 % 1014,7 hPa 0,0 mm 11,0 km/h (2 Bft) SW 225 0 min 5,4 C 18,5 km/h (3 Bft)
14.04.2016 13:20 9,4 C 6,9 C 76 % 1014,7 hPa 0,0 mm 12,8 km/h (3 Bft) SW 225 0 min 5,4 C 17,6 km/h (3 Bft)
14.04.2016 13:25 9,4 C 7,0 C 76 % 1014,7 hPa 0,0 mm 12,2 km/h (2 Bft) W 270 0 min 5,4 C 6,9 km/h (2 Bft)
14.04.2016 13:30 9,4 C 7,6 C 76 % 1014,4 hPa 0,0 mm 10,7 km/h (2 Bft) SW 225 0 min 5,4 C 10,4 km/h (2 Bft)
14.04.2016 13:35 9,4 C 8,3 C 76 % 1014,4 hPa 0,0 mm 9,2 km/h (2 Bft) W-SW 247 0 min 5,4 C 11,9 km/h (2 Bft)
14.04.2016 13:40 9,4 C 8,6 C 76 % 1014,4 hPa 0,0 mm 8,6 km/h (2 Bft) W 270 0 min 5,4 C 6,9 km/h (2 Bft)
14.04.2016 13:45 9,4 C 9,0 C 76 % 1014,4 hPa 0,0 mm 8,6 km/h (2 Bft) W-NW 292 0 min 5,4 C 9,2 km/h (2 Bft)
14.04.2016 13:50 10,5 C 10,4 C 76 % 1014,4 hPa 0,0 mm 9,2 km/h (2 Bft) S-SO 157 0 min 6,5 C 21,5 km/h (4 Bft)
14.04.2016 13:55 10,0 C 11,2 C 76 % 1014,4 hPa 0,0 mm 10,1 km/h (2 Bft) W-SW 247 0 min 6,0 C 10,1 km/h (2 Bft)
14.04.2016 14:00 11,1 C 12,7 C 76 % 1014,4 hPa 0,0 mm 9,8 km/h (2 Bft) W 270 0 min 7,0 C 11,3 km/h (2 Bft)
14.04.2016 14:05 10,0 C 12,4 C 76 % 1014,4 hPa 0,0 mm 9,8 km/h (2 Bft) SW 225 5 min 6,0 C 10,7 km/h (2 Bft)
14.04.2016 14:10 10,4 C 12,3 C 76 % 1014,6 hPa 0,0 mm 9,5 km/h (2 Bft) S 180 0 min 6,4 C 10,7 km/h (2 Bft)
14.04.2016 14:15 12,3 C 14,0 C 76 % 1014,6 hPa 0,0 mm 8,0 km/h (2 Bft) SW 225 0 min 8,2 C 12,8 km/h (3 Bft)
14.04.2016 14:20 11,9 C 15,0 C 76 % 1014,6 hPa 0,0 mm 9,2 km/h (2 Bft) W-SW 247 5 min 7,8 C 15,5 km/h (3 Bft)
14.04.2016 14:25 10,7 C 14,1 C 76 % 1014,6 hPa 0,0 mm 13,1 km/h (3 Bft) NW 315 5 min 6,6 C 33,1 km/h (5 Bft)
14.04.2016 14:30 10,5 C 13,3 C 76 % 1014,9 hPa 0,0 mm 17,0 km/h (3 Bft) W-SW 247 5 min 6,5 C 32,2 km/h (5 Bft)
14.04.2016 14:35 10,0 C 12,1 C 76 % 1014,9 hPa 0,0 mm 17,6 km/h (3 Bft) W-SW 247 0 min 6,0 C 20,3 km/h (4 Bft)
14.04.2016 14:40 9,7 C 11,3 C 76 % 1014,9 hPa 0,0 mm 16,7 km/h (3 Bft) W 270 0 min 5,7 C 20,6 km/h (4 Bft)
14.04.2016 14:45 10,0 C 10,9 C 72 % 1014,9 hPa 0,0 mm 13,1 km/h (3 Bft) W 270 0 min 5,2 C 14,0 km/h (3 Bft)
14.04.2016 14:50 9,8 C 11,1 C 72 % 1015,0 hPa 0,0 mm 11,6 km/h (2 Bft) NW 315 0 min 5,0 C 14,9 km/h (3 Bft)
14.04.2016 14:55 9,9 C 11,1 C 73 % 1015,0 hPa 0,0 mm 10,7 km/h (2 Bft) W-SW 247 0 min 5,3 C 9,5 km/h (2 Bft)
14.04.2016 15:00 9,5 C 10,9 C 72 % 1015,0 hPa 0,0 mm 10,7 km/h (2 Bft) W-SW 247 0 min 4,7 C 11,9 km/h (2 Bft)
14.04.2016 15:05 9,7 C 10,7 C 73 % 1015,0 hPa 0,0 mm 10,7 km/h (2 Bft) W-SW 247 0 min 5,1 C 20,3 km/h (4 Bft)
14.04.2016 15:10 9,3 C 10,6 C 73 % 1014,9 hPa 0,0 mm 9,5 km/h (2 Bft) W-SW 247 0 min 4,7 C 14,9 km/h (3 Bft)
14.04.2016 15:15 9,1 C 10,1 C 73 % 1014,9 hPa 0,0 mm 9,2 km/h (2 Bft) W-NW 292 0 min 4,5 C 12,5 km/h (3 Bft)
14.04.2016 15:20 9,3 C 10,3 C 73 % 1014,9 hPa 0,0 mm 7,2 km/h (2 Bft) W-SW 247 0 min 4,7 C 4,2 km/h (1 Bft)
14.04.2016 15:25 9,4 C 10,7 C 73 % 1014,9 hPa 0,0 mm 7,7 km/h (2 Bft) W-NW 292 0 min 4,8 C 12,8 km/h (3 Bft)
14.04.2016 15:30 10,0 C 11,0 C 73 % 1014,4 hPa 0,0 mm 7,5 km/h (2 Bft) W-SW 247 0 min 5,4 C 8,6 km/h (2 Bft)
14.04.2016 15:35 10,3 C 11,6 C 73 % 1014,4 hPa 0,0 mm 6,3 km/h (2 Bft) NW 315 0 min 5,7 C 8,0 km/h (2 Bft)
14.04.2016 15:40 10,6 C 12,1 C 73 % 1014,4 hPa 0,0 mm 6,0 km/h (2 Bft) W-SW 247 0 min 6,0 C 10,4 km/h (2 Bft)
14.04.2016 15:41 10,6 C 12,1 C 73 % 1014,4 hPa 0,0 mm 6,0 km/h (2 Bft) W-SW 247 0 min 6,0 C 10,4 km/h (2 Bft)
14.04.2016 15:45 10,8 C 12,4 C 72 % 1014,4 hPa 0,0 mm 5,4 km/h (1 Bft) W 270 0 min 6,0 C 6,3 km/h (2 Bft)
14.04.2016 15:50 10,6 C 12,5 C 72 % 1014,3 hPa 0,0 mm 7,2 km/h (2 Bft) N 360 0 min 5,8 C 8,0 km/h (2 Bft)
14.04.2016 15:55 11,0 C 12,5 C 72 % 1014,3 hPa 0,0 mm 7,7 km/h (2 Bft) W-SW 247 0 min 6,2 C 11,3 km/h (2 Bft)
14.04.2016 16:00 12,6 C 13,6 C 71 % 1014,3 hPa 0,0 mm 6,0 km/h (2 Bft) NW 315 0 min 7,5 C 9,8 km/h (2 Bft)
14.04.2016 16:05 12,7 C 16,1 C 70 % 1014,3 hPa 0,0 mm 5,1 km/h (1 Bft) W-NW 292 5 min 7,4 C 5,4 km/h (1 Bft)
14.04.2016 16:10 11,9 C 15,8 C 70 % 1014,2 hPa 0,0 mm 5,7 km/h (1 Bft) SW 225 5 min 6,6 C 18,5 km/h (3 Bft)
14.04.2016 16:15 11,7 C 14,6 C 69 % 1014,2 hPa 0,0 mm 7,2 km/h (2 Bft) W 270 5 min 6,2 C 10,4 km/h (2 Bft)
14.04.2016 16:20 11,4 C 14,2 C 68 % 1014,2 hPa 0,0 mm 8,3 km/h (2 Bft) SW 225 5 min 5,7 C 12,5 km/h (3 Bft)
14.04.2016 16:25 11,3 C 13,3 C 67 % 1014,2 hPa 0,0 mm 7,7 km/h (2 Bft) NW 315 0 min 5,4 C 6,3 km/h (2 Bft)
14.04.2016 16:30 11,1 C 12,8 C 67 % 1014,1 hPa 0,0 mm 6,9 km/h (2 Bft) SW 225 0 min 5,2 C 6,0 km/h (2 Bft)
14.04.2016 16:35 10,9 C 12,3 C 67 % 1014,1 hPa 0,0 mm 7,2 km/h (2 Bft) W-NW 292 0 min 5,0 C 7,2 km/h (2 Bft)
14.04.2016 16:40 10,7 C 12,0 C 66 % 1014,1 hPa 0,0 mm 7,5 km/h (2 Bft) W 270 0 min 4,6 C 15,8 km/h (3 Bft)
14.04.2016 16:45 10,9 C 11,9 C 66 % 1014,1 hPa 0,0 mm 6,6 km/h (2 Bft) W 270 0 min 4,8 C 8,6 km/h (2 Bft)
14.04.2016 16:50 11,0 C 12,0 C 66 % 1014,0 hPa 0,0 mm 6,6 km/h (2 Bft) W-NW 292 0 min 4,9 C 7,7 km/h (2 Bft)
14.04.2016 16:55 10,8 C 11,9 C 67 % 1014,0 hPa 0,0 mm 7,7 km/h (2 Bft) N-NW 337 0 min 4,9 C 11,6 km/h (2 Bft)
14.04.2016 17:00 10,6 C 11,6 C 66 % 1014,0 hPa 0,0 mm 8,9 km/h (2 Bft) NW 315 0 min 4,5 C 8,3 km/h (2 Bft)
14.04.2016 17:05 10,5 C 11,1 C 66 % 1014,0 hPa 0,0 mm 9,5 km/h (2 Bft) W 270 0 min 4,4 C 9,5 km/h (2 Bft)
14.04.2016 17:10 10,5 C 11,2 C 66 % 1014,0 hPa 0,0 mm 8,0 km/h (2 Bft) W-NW 292 0 min 4,4 C 8,3 km/h (2 Bft)
14.04.2016 17:15 10,5 C 11,2 C 67 % 1014,0 hPa 0,0 mm 7,2 km/h (2 Bft) W 270 0 min 4,6 C 11,0 km/h (2 Bft)
14.04.2016 17:20 10,5 C 11,2 C 67 % 1014,0 hPa 0,0 mm 7,5 km/h (2 Bft) NW 315 0 min 4,6 C 7,5 km/h (2 Bft)
14.04.2016 17:25 10,7 C 11,2 C 67 % 1014,0 hPa 0,0 mm 6,6 km/h (2 Bft) W-NW 292 0 min 4,8 C 8,6 km/h (2 Bft)
14.04.2016 17:30 10,8 C 11,4 C 67 % 1013,8 hPa 0,0 mm 4,8 km/h (1 Bft) NW 315 0 min 4,9 C 6,0 km/h (2 Bft)
14.04.2016 17:35 10,9 C 11,5 C 67 % 1013,8 hPa 0,0 mm 4,8 km/h (1 Bft) NW 315 0 min 5,0 C 7,5 km/h (2 Bft)
14.04.2016 17:40 10,8 C 11,5 C 67 % 1013,8 hPa 0,0 mm 5,7 km/h (1 Bft) NW 315 0 min 4,9 C 8,6 km/h (2 Bft)
14.04.2016 17:45 10,3 C 11,4 C 67 % 1013,8 hPa 0,0 mm 7,2 km/h (2 Bft) NO 45 0 min 4,4 C 9,8 km/h (2 Bft)
14.04.2016 17:50 10,4 C 11,2 C 67 % 1013,8 hPa 0,0 mm 7,2 km/h (2 Bft) N-NO 22 0 min 4,5 C 13,1 km/h (3 Bft)
14.04.2016 17:55 10,9 C 11,6 C 67 % 1013,8 hPa 0,0 mm 7,5 km/h (2 Bft) N-NO 22 0 min 5,0 C 7,5 km/h (2 Bft)
14.04.2016 18:00 11,1 C 12,2 C 67 % 1013,8 hPa 0,0 mm 7,7 km/h (2 Bft) NW 315 0 min 5,2 C 5,7 km/h (1 Bft)
14.04.2016 18:05 11,0 C 12,9 C 67 % 1013,8 hPa 0,0 mm 5,4 km/h (1 Bft) O-NO 67 0 min 5,1 C 8,3 km/h (2 Bft)
14.04.2016 18:10 10,6 C 12,9 C 67 % 1013,6 hPa 0,0 mm 4,5 km/h (1 Bft) N-NW 337 5 min 4,7 C 5,4 km/h (1 Bft)
14.04.2016 18:15 11,0 C 12,8 C 67 % 1013,6 hPa 0,0 mm 7,2 km/h (2 Bft) N-NO 22 0 min 5,1 C 7,5 km/h (2 Bft)
14.04.2016 18:20 11,1 C 12,9 C 67 % 1013,6 hPa 0,0 mm 8,9 km/h (2 Bft) NO 45 0 min 5,2 C 18,5 km/h (3 Bft)
14.04.2016 18:25 10,6 C 12,3 C 67 % 1013,6 hPa 0,0 mm 9,5 km/h (2 Bft) N-NW 337 0 min 4,7 C 7,5 km/h (2 Bft)
14.04.2016 18:30 10,5 C 12,1 C 67 % 1013,8 hPa 0,0 mm 8,6 km/h (2 Bft) N-NW 337 0 min 4,6 C 7,7 km/h (2 Bft)
14.04.2016 18:35 10,3 C 11,9 C 67 % 1013,8 hPa 0,0 mm 7,5 km/h (2 Bft) NW 315 0 min 4,4 C 8,9 km/h (2 Bft)
14.04.2016 18:40 10,3 C 11,3 C 67 % 1013,8 hPa 0,0 mm 6,3 km/h (2 Bft) NO 45 0 min 4,4 C 5,1 km/h (1 Bft)
14.04.2016 18:42 10,3 C 11,3 C 67 % 1013,8 hPa 0,0 mm 6,3 km/h (2 Bft) NO 45 0 min 4,4 C 5,1 km/h (1 Bft)
14.04.2016 18:45 10,3 C 10,7 C 67 % 1013,8 hPa 0,0 mm 5,7 km/h (1 Bft) O-NO 67 0 min 4,4 C 5,7 km/h (1 Bft)
14.04.2016 18:50 10,3 C 10,3 C 67 % 1013,8 hPa 0,0 mm 6,6 km/h (2 Bft) N-NO 22 0 min 4,4 C 3,9 km/h (1 Bft)
14.04.2016 18:55 10,3 C 10,4 C 67 % 1013,8 hPa 0,0 mm 3,6 km/h (1 Bft) O-NO 67 0 min 4,4 C 0,0 km/h (0 Bft)
14.04.2016 19:00 10,3 C 11,3 C 67 % 1013,8 hPa 0,0 mm 1,2 km/h (1 Bft) NO 45 0 min 4,4 C 6,0 km/h (2 Bft)
14.04.2016 19:05 10,3 C 11,6 C 67 % 1013,8 hPa 0,0 mm 1,2 km/h (1 Bft) NO 45 0 min 4,4 C 0,0 km/h (0 Bft)
14.04.2016 19:10 10,3 C 11,4 C 67 % 1013,8 hPa 0,0 mm 1,5 km/h (1 Bft) W-SW 247 0 min 4,4 C 0,0 km/h (0 Bft)
14.04.2016 19:15 10,3 C 11,0 C 67 % 1013,8 hPa 0,0 mm 0,6 km/h (0 Bft) O-NO 67 0 min 4,4 C 0,0 km/h (0 Bft)
14.04.2016 19:20 10,3 C 10,7 C 67 % 1013,8 hPa 0,0 mm 0,0 km/h (0 Bft) SO 135 0 min 4,4 C 0,0 km/h (0 Bft)
14.04.2016 19:25 10,3 C 10,3 C 67 % 1013,8 hPa 0,0 mm 0,0 km/h (0 Bft) S-SO 157 0 min 4,4 C 0,0 km/h (0 Bft)
14.04.2016 19:30 10,3 C 10,0 C 67 % 1013,8 hPa 0,0 mm 0,0 km/h (0 Bft) SO 135 0 min 4,4 C 0,0 km/h (0 Bft)
14.04.2016 19:35 10,3 C 9,3 C 67 % 1013,8 hPa 0,0 mm 0,0 km/h (0 Bft) S 180 0 min 4,4 C 0,0 km/h (0 Bft)
14.04.2016 19:40 10,3 C 8,7 C 67 % 1013,8 hPa 0,0 mm 0,0 km/h (0 Bft) S-SW 202 0 min 4,4 C 0,0 km/h (0 Bft)
14.04.2016 19:46 10,3 C 7,9 C 67 % 1013,8 hPa 0,0 mm 0,0 km/h (0 Bft) S-SO 157 0 min 4,4 C 3,0 km/h (1 Bft)
14.04.2016 19:50 10,3 C 7,5 C 67 % 1013,9 hPa 0,0 mm 0,0 km/h (0 Bft) S-SO 157 0 min 4,4 C 0,0 km/h (0 Bft)
14.04.2016 19:55 10,3 C 7,1 C 67 % 1013,9 hPa 0,0 mm 0,0 km/h (0 Bft) S-SO 157 0 min 4,4 C 0,0 km/h (0 Bft)
14.04.2016 20:00 10,3 C 6,8 C 67 % 1013,9 hPa 0,0 mm 0,0 km/h (0 Bft) S 180 0 min 4,4 C 3,0 km/h (1 Bft)
14.04.2016 20:05 10,3 C 6,6 C 67 % 1013,9 hPa 0,0 mm 0,6 km/h (0 Bft) S-SO 157 0 min 4,4 C 3,0 km/h (1 Bft)
14.04.2016 20:10 10,3 C 6,5 C 67 % 1013,5 hPa 0,0 mm 0,6 km/h (0 Bft) S-SO 157 0 min 4,4 C 0,0 km/h (0 Bft)
14.04.2016 20:15 10,3 C 6,1 C 67 % 1013,5 hPa 0,0 mm 0,3 km/h (0 Bft) S-SO 157 0 min 4,4 C 3,0 km/h (1 Bft)
14.04.2016 20:20 10,3 C 5,9 C 67 % 1013,5 hPa 0,0 mm 0,0 km/h (0 Bft) SO 135 0 min 4,4 C 3,0 km/h (1 Bft)
14.04.2016 20:25 10,3 C 5,8 C 67 % 1013,5 hPa 0,0 mm 0,9 km/h (0 Bft) S-SO 157 0 min 4,4 C 3,3 km/h (1 Bft)
14.04.2016 20:30 10,3 C 5,6 C 67 % 1013,6 hPa 0,0 mm 2,4 km/h (1 Bft) S-SO 157 0 min 4,4 C 4,5 km/h (1 Bft)
14.04.2016 20:35 10,3 C 5,5 C 67 % 1013,6 hPa 0,0 mm 2,1 km/h (1 Bft) O-SO 112 0 min 4,4 C 0,0 km/h (0 Bft)
14.04.2016 20:40 10,3 C 5,1 C 67 % 1013,6 hPa 0,0 mm 0,9 km/h (0 Bft) O-NO 67 0 min 4,4 C 0,0 km/h (0 Bft)
14.04.2016 20:45 10,3 C 4,9 C 67 % 1013,6 hPa 0,0 mm 0,0 km/h (0 Bft) SO 135 0 min 4,4 C 0,0 km/h (0 Bft)
14.04.2016 20:50 10,3 C 5,0 C 67 % 1013,6 hPa 0,0 mm 0,0 km/h (0 Bft) O-NO 67 0 min 4,4 C 0,0 km/h (0 Bft)
14.04.2016 20:55 10,3 C 4,7 C 67 % 1013,6 hPa 0,0 mm 0,0 km/h (0 Bft) O-NO 67 0 min 4,4 C 0,0 km/h (0 Bft)
14.04.2016 21:00 10,3 C 4,6 C 67 % 1013,6 hPa 0,0 mm 0,0 km/h (0 Bft) O-NO 67 0 min 4,4 C 0,0 km/h (0 Bft)
14.04.2016 21:05 10,3 C 4,4 C 67 % 1013,6 hPa 0,0 mm 0,0 km/h (0 Bft) O 90 0 min 4,4 C 0,0 km/h (0 Bft)
14.04.2016 21:10 10,3 C 4,1 C 67 % 1013,6 hPa 0,0 mm 0,0 km/h (0 Bft) O-NO 67 0 min 4,4 C 0,0 km/h (0 Bft)
14.04.2016 21:15 10,3 C 4,1 C 67 % 1013,6 hPa 0,0 mm 0,0 km/h (0 Bft) W-SW 247 0 min 4,4 C 0,0 km/h (0 Bft)
14.04.2016 21:20 10,3 C 4,1 C 67 % 1013,6 hPa 0,0 mm 0,0 km/h (0 Bft) N-NO 22 0 min 4,4 C 0,0 km/h (0 Bft)
14.04.2016 21:25 10,3 C 4,1 C 67 % 1013,6 hPa 0,0 mm 0,0 km/h (0 Bft) NO 45 0 min 4,4 C 0,0 km/h (0 Bft)
14.04.2016 21:30 10,3 C 3,8 C 67 % 1013,4 hPa 0,0 mm 0,0 km/h (0 Bft) NW 315 0 min 4,4 C 0,0 km/h (0 Bft)
14.04.2016 21:35 10,3 C 3,6 C 67 % 1013,4 hPa 0,0 mm 0,0 km/h (0 Bft) N-NO 22 0 min 4,4 C 0,0 km/h (0 Bft)
14.04.2016 21:40 10,3 C 3,4 C 67 % 1013,4 hPa 0,0 mm 0,0 km/h (0 Bft) NO 45 0 min 4,4 C 0,0 km/h (0 Bft)
14.04.2016 21:43 3,4 C 3,1 C 84 % 1013,4 hPa 0,0 mm 0,0 km/h (0 Bft) N-NO 22 0 min 1,0 C 0,0 km/h (0 Bft)
14.04.2016 21:45 3,4 C 3,1 C 84 % 1013,4 hPa 0,0 mm 0,0 km/h (0 Bft) N-NO 22 0 min 1,0 C 0,0 km/h (0 Bft)
14.04.2016 21:50 3,4 C 3,1 C 84 % 1013,1 hPa 0,0 mm 0,0 km/h (0 Bft) W-SW 247 0 min 1,0 C 0,0 km/h (0 Bft)
14.04.2016 21:55 3,5 C 3,1 C 85 % 1013,1 hPa 0,0 mm 0,0 km/h (0 Bft) N-NO 22 0 min 1,2 C 0,0 km/h (0 Bft)
14.04.2016 22:00 3,5 C 3,1 C 85 % 1013,1 hPa 0,0 mm 0,0 km/h (0 Bft) NO 45 0 min 1,2 C 0,0 km/h (0 Bft)
14.04.2016 22:05 3,4 C 3,0 C 85 % 1013,1 hPa 0,0 mm 0,0 km/h (0 Bft) N-NO 22 0 min 1,1 C 0,0 km/h (0 Bft)
14.04.2016 22:10 3,3 C 2,9 C 85 % 1012,9 hPa 0,0 mm 0,0 km/h (0 Bft) O-SO 112 0 min 1,0 C 0,0 km/h (0 Bft)
14.04.2016 22:15 3,4 C 3,0 C 86 % 1012,9 hPa 0,0 mm 0,0 km/h (0 Bft) NW 315 0 min 1,3 C 4,8 km/h (1 Bft)
14.04.2016 22:20 3,6 C 3,2 C 86 % 1012,9 hPa 0,0 mm 0,0 km/h (0 Bft) S 180 0 min 1,5 C 0,0 km/h (0 Bft)
14.04.2016 22:25 3,5 C 3,2 C 86 % 1012,9 hPa 0,0 mm 0,0 km/h (0 Bft) O-SO 112 0 min 1,4 C 0,0 km/h (0 Bft)
14.04.2016 22:30 3,5 C 3,2 C 86 % 1012,8 hPa 0,0 mm 0,0 km/h (0 Bft) N-NO 22 0 min 1,4 C 0,0 km/h (0 Bft)
14.04.2016 22:35 3,4 C 3,1 C 86 % 1012,8 hPa 0,0 mm 0,0 km/h (0 Bft) N-NW 337 0 min 1,3 C 0,0 km/h (0 Bft)
14.04.2016 22:40 3,2 C 3,0 C 86 % 1012,8 hPa 0,0 mm 0,0 km/h (0 Bft) W 270 0 min 1,1 C 0,0 km/h (0 Bft)
14.04.2016 22:45 3,2 C 2,9 C 86 % 1012,8 hPa 0,0 mm 0,0 km/h (0 Bft) O-NO 67 0 min 1,1 C 0,0 km/h (0 Bft)
14.04.2016 22:50 3,1 C 2,9 C 86 % 1012,6 hPa 0,0 mm 0,0 km/h (0 Bft) N-NW 337 0 min 1,0 C 0,0 km/h (0 Bft)
14.04.2016 22:55 3,3 C 3,0 C 87 % 1012,6 hPa 0,0 mm 0,0 km/h (0 Bft) O-NO 67 0 min 1,3 C 0,0 km/h (0 Bft)
14.04.2016 23:00 3,6 C 3,2 C 87 % 1012,6 hPa 0,0 mm 0,0 km/h (0 Bft) O-SO 112 0 min 1,6 C 0,0 km/h (0 Bft)
14.04.2016 23:05 3,4 C 3,1 C 87 % 1012,6 hPa 0,0 mm 0,0 km/h (0 Bft) NW 315 0 min 1,4 C 0,0 km/h (0 Bft)
14.04.2016 23:10 3,1 C 2,9 C 87 % 1012,6 hPa 0,0 mm 0,0 km/h (0 Bft) N 360 0 min 1,2 C 0,0 km/h (0 Bft)
14.04.2016 23:15 3,3 C 3,0 C 87 % 1012,6 hPa 0,0 mm 0,0 km/h (0 Bft) NO 45 0 min 1,3 C 0,0 km/h (0 Bft)
14.04.2016 23:20 3,2 C 3,0 C 87 % 1012,6 hPa 0,0 mm 0,0 km/h (0 Bft) W-NW 292 0 min 1,2 C 0,0 km/h (0 Bft)
14.04.2016 23:25 3,1 C 2,9 C 87 % 1012,6 hPa 0,0 mm 0,0 km/h (0 Bft) SO 135 0 min 1,2 C 0,0 km/h (0 Bft)
14.04.2016 23:30 3,0 C 2,8 C 87 % 1012,6 hPa 0,0 mm 0,0 km/h (0 Bft) W 270 0 min 1,1 C 0,0 km/h (0 Bft)
14.04.2016 23:35 3,1 C 2,8 C 88 % 1012,6 hPa 0,0 mm 0,0 km/h (0 Bft) N-NW 337 0 min 1,3 C 0,0 km/h (0 Bft)
14.04.2016 23:40 3,2 C 2,9 C 88 % 1012,6 hPa 0,0 mm 0,0 km/h (0 Bft) O 90 0 min 1,4 C 0,0 km/h (0 Bft)
14.04.2016 23:45 3,3 C 2,9 C 88 % 1012,6 hPa 0,0 mm 0,0 km/h (0 Bft) W 270 0 min 1,5 C 0,0 km/h (0 Bft)
14.04.2016 23:50 3,1 C 2,8 C 88 % 1012,3 hPa 0,0 mm 0,0 km/h (0 Bft) NW 315 0 min 1,3 C 0,0 km/h (0 Bft)
14.04.2016 23:55 3,2 C 2,9 C 88 % 1012,3 hPa 0,0 mm 0,3 km/h (0 Bft) S 180 0 min 1,4 C 0,0 km/h (0 Bft)
_ Min-Zeit 23:30 23:50 17:10 01:05 - 23:50 - - - 21:50 23:55
Minimum _ 3,0 C 2,8 C 66 % 1009,4 hPa - 0,0 km/h (0 Bft) - - - 1,0 C 0,0 km/h (0 Bft)
_ Max-Zeit 16:05 16:05 00:10 15:05 06:10 14:35 - - 18:10 14:15 06:10
Maximum _ 12,7 C 16,1 C 91 % 1015,0 hPa 3,4 mm 17,6 km/h
W-SW (3 Bft)
- - 5 min 8,2 C 40,2 km/h
W (6 Bft)
Durchschnitt _ 7,6 C 7,4 C 79 % 1012,6 hPa #11,7 mm 6,6 km/h (2 Bft) W-SW - #1:20 h 4,1 C 8,8 km/h (2 Bft)